Weather observations for the past three days for
Hanchey AHP / Ozark
Metric (Imperial)
Date Time (cdt) Wind (kph) Vis. (km) Weather Sky Cond. Temperature (ºC) Relative Humidity Wind Chill (°C) Heat Index (°C) Pressure Precipitation (cm)
Air Dwpt 6 hour altimeter (cm) sea level (mb) 1 hr 3 hr 6 hr
Max. Min.
31 07:55 E 13 16.09 A Few Clouds FEW007 25.5 23.1 87% 27 76.45 1019.2
31 06:55 NE 7 16.09 Fair CLR 24 22.8 26.3 23.9 93% 23 76.4 1018.5
31 05:55 E 9 16.09 Fair CLR 24 22.6 92% 23 76.35 1017.8
31 04:55 E 11 16.09 Fair CLR 24.4 22.6 90% 24 76.3 1017.1
31 03:55 NE 7 16.09 Fair CLR 24.6 22.6 89% 25 76.3 1017.1
31 02:55 E 9 16.09 Fair CLR 24.9 22.7 88% 26 76.3 1017.1
31 01:55 NE 7 16.09 Fair CLR 25.8 22.9 84% 27 76.3 1017.1
31 00:55 E 6 16.09 Fair CLR 25.8 23.4 29.8 25.4 87% 27 76.33 1017.4
30 23:55 E 7 16.09 Fair CLR 26.7 23.3 82% 29 76.3 1017.1
30 22:55 E 7 16.09 Fair CLR 26.8 23.2 81% 29 76.33 1017.4
30 21:55 E 9 16.09 Fair CLR 27.6 23.6 79% 31 76.33 1017.5
30 20:55 E 7 16.09 Fair CLR 28.2 23.5 76% 32 76.33 1017.5
30 19:55 E 7 16.09 Fair CLR 28.9 23.3 72% 33 76.3 1017.1
30 18:55 SE 6 16.09 Fair CLR 29.9 23.5 34 29.9 69% 34 76.28 1016.8
30 17:55 E 9 16.09 Fair CLR 32.1 23 59% 37 76.23 1016.1
30 16:55 SE 9 14.48 Fair CLR 32.1 22.7 58% 37 76.25 1016.4
30 15:55 E 19 16.09 Fair CLR 33.7 22.4 52% 38 76.25 1016.4
30 14:55 E 11 16.09 Fair CLR 32.7 21.8 53% 36 76.3 1017.1
30 13:55 NE 11 16.09 Partly Cloudy FEW041 SCT065 32.6 22.3 55% 37 76.35 1017.8
30 12:55 E 19 G 28 16.09 A Few Clouds FEW036 FEW047 32.6 22.6 32.6 23.8 56% 37 76.4 1018.5
30 11:55 E 19 16.09 Fair CLR 31.7 22.1 57% 35 76.45 1019.1
30 10:55 E 13 16.09 Partly Cloudy SCT170 30.4 22.8 64% 34 76.5 1019.8
30 09:55 E 15 16.09 Fair CLR 28.8 23 71% 32 76.48 1019.5
30 08:55 E 11 16.09 Fair CLR 26.9 23.1 80% 29 76.48 1019.5
30 07:55 E 9 16.09 Fair CLR 25 23 89% 26 76.45 1019.2
30 06:55 E 7 12.87 Fair CLR 23.9 23 24.3 23.1 95% 23 76.43 1018.9
30 05:55 E 7 16.09 A Few Clouds FEW001 23.7 22.8 95% 76.35 1017.8
30 04:55 E 9 16.09 Fair CLR 23.9 22.8 94% 23 76.35 1017.8
30 03:55 E 9 16.09 Fair CLR 24.2 22.8 92% 24 76.33 1017.5
30 02:55 NE 9 16.09 Fair CLR 24.1 22.9 93% 24 76.33 1017.5
30 01:55 Calm 16.09 Fair CLR 23.4 22.5 95% 76.33 1017.5
30 00:55 Calm 16.09 Fair CLR 23.9 22.8 28.3 23.8 94% 23 76.38 1018.1
29 23:55 Calm 16.09 Fair CLR 25.5 23.5 89% 27 76.43 1018.8
29 22:55 SE 6 16.09 Fair CLR 25 23.4 91% 26 76.43 1018.8
29 21:55 Calm 16.09 Fair CLR 25.4 23.4 89% 27 76.43 1018.8
29 20:55 Calm 16.09 Mostly Cloudy BKN070 26.4 23 82% 29 76.4 1018.5
29 19:55 SE 6 16.09 Fair CLR 26.6 23.2 82% 29 76.3 1017.2
29 18:55 S 11 16.09 Fair CLR 28.3 23 31.8 28.3 73% 32 76.25 1016.5
29 17:55 S 9 16.09 Mostly Cloudy SCT037 BKN050 29.5 22.9 68% 33 76.28 1016.8
29 15:55 SE 9 16.09 A Few Clouds FEW040 30.8 22.6 62% 35 76.28 1016.8
29 14:55 SE 13 16.09 Mostly Cloudy BKN031 BKN065 31.1 23.2 63% 36 76.33 1017.5
29 13:55 SE 13 16.09 Mostly Cloudy SCT032 BKN042 31 23.1 63% 36 76.38 1018.2
29 12:55 SE 15 16.09 Partly Cloudy FEW029 FEW240 SCT310 SCT340 31 22.8 31.1 23.3 62% 35 76.4 1018.5
29 11:55 SE 13 16.09 Partly Cloudy FEW028 SCT036 SCT300 30.2 22.8 65% 34 76.43 1018.8
29 10:55 E 17 16.09 Mostly Cloudy BKN021 29.9 23.3 68% 34 76.43 1018.8
29 09:55 E 11 16.09 Fair CLR 28.3 23.8 77% 32 76.43 1018.9
29 08:55 E 7 16.09 Fair CLR 26.3 23.5 85% 29 76.43 1018.9
29 07:55 Calm 14.48 Partly Cloudy SCT002 24.3 23.1 93% 24 76.43 1018.9
29 06:55 Calm 12.87 Fair CLR 23.3 22.8 24.2 22.6 97% 76.38 1018.2
29 05:55 E 6 12.87 Fair CLR 23.3 22.6 96% 76.3 1017.2
29 04:55 NE 6 14.48 Fair CLR 24.2 23.1 94% 24 76.3 1017.1
29 03:55 Calm 14.48 Mostly Cloudy BKN011 BKN160 23.2 22.5 96% 76.28 1016.8
29 02:55 E 6 14.48 Partly Cloudy SCT160 23.7 22.8 95% 76.28 1016.8
29 01:55 Calm 16.09 Overcast OVC140 22.9 22.4 97% 76.28 1016.8
29 00:55 Calm 16.09 Fair CLR 23.3 22.4 27.9 23.1 95% 76.28 1016.8
28 23:55 N 7 16.09 Fair CLR 23.4 22.3 94% 76.28 1016.8
28 22:55 Calm 16.09 Fair CLR 23.9 22.7 93% 23 76.25 1016.5
28 21:55 Calm 16.09 Fair CLR 24.5 22.9 91% 25 76.25 1016.5
28 20:55 SW 6 16.09 Fair CLR 25.3 22.8 86% 26 76.2 1015.8
28 19:55 Calm 16.09 Partly Cloudy SCT170 26.3 22.7 81% 28 76.2 1015.8
28 18:55 S 7 16.09 A Few Clouds FEW170 28 22.9 30.9 28 74% 31 76.15 1015.1
28 17:55 SW 7 16.09 Mostly Cloudy FEW130 BKN160 29.3 23 69% 33 76.12 1014.8
28 16:55 SW 6 16.09 Mostly Cloudy BKN160 29.7 22.6 66% 33 76.15 1015.1
28 15:55 SW 7 16.09 Fair CLR 29.7 22.4 65% 33 76.15 1015.1
28 14:55 S 7 16.09 Fair CLR 30.8 22.4 61% 35 76.15 1015.1
28 13:55 S 6 16.09 Partly Cloudy SCT160 29.3 24.1 74% 34 76.2 1015.8
28 12:55 E 6 16.09 Overcast OVC120 28.4 23.9 28.9 24 77% 33 76.28 1016.8
28 11:55 S 6 16.09 Mostly Cloudy BKN110 27.7 24.7 84% 32 76.33 1017.5
28 10:55 Calm 16.09 Partly Cloudy FEW014 SCT120 27.7 24.3 82% 32 76.3 1017.2
28 09:55 E 7 16.09 Overcast BKN011 OVC120 27 24.4 86% 30 76.25 1016.5
Date Time (cdt) Wind (kph) Vis. (km) Weather Sky Cond. Air Dwpt Max. Min. Relative Humidity Wind Chill (°C) Heat Index (°C) altimeter (cm) sea level (mb) 1 hr 3 hr 6 hr
6 hour
Temperature (ºC) Pressure Precipitation (cm)